Date String (YYYY-MM-DD hh:mm:ss) UTC,Instrument flags,Ambient pressure (hPa),Sample flow (lpm),Bypass flow (lpm),Sample temperature (°C),Ambient temperature (°C),ASC tube jacket temperature (°C),LED temperature (°C),Box temperature (°C),Sample RH (%),Span deviation,Mass concentration (μg/m³),Mass concentration (μg/m³),Mass concentration (μg/m³)
DateTimeUTC,F1_M11,P_M11,Q1_M11,Q2_M11,T1_M11,T2_M11,T3_M11,T4_M11,T5_M11,U1_M11,ZSPAN_M11,X0_M11,X2_M11,X1_M11
2022-05-15 23:00:00,,0828.1,5.02,0.00,29.7,27.5,00.0,38.4,31.3,15.6,0000.0,0012.81,0003.91,0002.32
2022-05-15 23:01:00,,0828.1,4.99,0.00,29.5,25.3,00.0,38.4,30.8,15.6,0000.0,0012.14,0003.90,0002.32
2022-05-15 23:02:00,,0828.1,5.00,0.00,29.4,25.1,00.0,38.4,30.8,15.8,0000.0,0011.85,0003.86,0002.33
2022-05-15 23:03:00,,0828.1,5.01,0.00,29.3,25.6,00.0,38.3,30.9,16.0,0000.0,0011.48,0003.84,0002.33
2022-05-15 23:04:00,,0828.1,4.99,0.00,29.3,26.1,00.0,38.3,31.0,15.8,0000.0,0011.95,0003.77,0002.32
2022-05-15 23:05:00,,0828.2,5.00,0.00,29.3,26.6,00.0,38.3,31.1,15.6,0000.0,0011.29,0003.73,0002.31
2022-05-15 23:06:00,,0828.1,5.00,0.00,29.3,27.0,00.0,38.3,31.1,15.4,0000.0,0010.25,0003.73,0002.28
2022-05-15 23:07:00,,0828.2,5.01,0.00,29.4,27.3,00.0,38.3,31.2,15.5,0000.0,0010.19,0003.72,0002.26
2022-05-15 23:08:00,,0828.1,5.00,0.00,29.4,27.6,00.0,38.3,31.2,15.9,0000.0,0010.08,0003.69,0002.23
2022-05-15 23:09:00,,0828.2,4.99,0.00,29.4,27.8,00.0,38.3,31.3,15.9,0000.0,0009.99,0003.69,0002.21
2022-05-15 23:10:00,,0828.1,5.00,0.00,29.5,28.0,00.0,38.3,31.4,15.6,0000.0,0010.19,0003.69,0002.19
2022-05-15 23:11:00,,0828.1,5.01,0.00,29.5,28.2,00.0,38.3,31.4,15.6,0000.0,0010.38,0003.69,0002.16
2022-05-15 23:12:00,,0828.1,5.01,0.00,29.5,28.3,00.0,38.3,31.5,15.7,0000.0,0010.91,0003.69,0002.13
2022-05-15 23:13:00,,0828.1,5.00,0.00,29.6,28.5,00.0,38.4,31.5,15.8,0000.0,0011.46,0003.70,0002.12
2022-05-15 23:14:00,,0828.1,4.99,0.00,29.6,28.6,00.0,38.4,31.6,15.7,0000.0,0011.50,0003.69,0002.10
2022-05-15 23:15:00,,0828.1,5.00,0.00,29.7,28.6,00.0,38.4,31.6,15.8,0000.0,0011.25,0003.74,0002.08
2022-05-15 23:16:00,,0828.1,5.00,0.00,29.7,28.4,00.0,38.4,31.6,15.7,0000.0,0012.04,0003.78,0002.07
2022-05-15 23:17:00,,0828.1,5.01,0.00,29.6,26.6,00.0,38.4,31.1,15.7,0000.0,0012.83,0003.76,0002.06
2022-05-15 23:18:00,,0828.0,4.98,0.00,29.5,26.0,00.0,38.4,31.0,15.4,0000.0,0013.80,0003.83,0002.05
2022-05-15 23:19:00,,0828.1,5.02,0.00,29.5,26.4,00.0,38.4,31.1,15.7,0000.0,0014.33,0003.89,0002.05
2022-05-15 23:20:00,,0828.0,5.00,0.00,29.5,26.8,00.0,38.4,31.2,16.0,0000.0,0014.12,0003.85,0002.03
2022-05-15 23:21:00,,0828.2,5.00,0.00,29.5,27.2,00.0,38.4,31.2,15.5,0000.0,0013.96,0003.83,0002.00
2022-05-15 23:22:00,,0828.2,4.99,0.00,29.5,27.5,00.0,38.4,31.3,15.5,0000.0,0014.60,0003.89,0002.00
2022-05-15 23:23:00,,0828.0,5.00,0.00,29.5,27.8,00.0,38.4,31.4,15.8,0000.0,0015.29,0003.93,0002.02
2022-05-15 23:24:00,,0828.1,5.00,0.00,29.6,28.0,00.0,38.4,31.4,16.0,0000.0,0015.34,0003.95,0001.98
2022-05-15 23:25:00,,0828.0,4.99,0.00,29.6,28.2,00.0,38.4,31.5,15.5,0000.0,0015.71,0004.01,0001.98
2022-05-15 23:26:00,,0828.2,5.01,0.00,29.6,28.4,00.0,38.4,31.5,15.5,0000.0,0015.70,0004.04,0001.98
2022-05-15 23:27:00,,0828.1,5.00,0.00,29.7,28.5,00.0,38.4,31.6,15.8,0000.0,0015.53,0004.02,0001.98
2022-05-15 23:28:00,,0828.0,5.00,0.00,29.7,28.6,00.0,38.5,31.6,15.5,0000.0,0014.99,0003.99,0001.97
2022-05-15 23:29:00,,0828.0,5.00,0.00,29.7,28.6,00.0,38.5,31.7,15.4,0000.0,0014.69,0003.96,0001.97
2022-05-15 23:30:00,,0828.0,5.02,0.00,29.7,27.1,00.0,38.5,31.3,15.3,0000.0,0015.12,0003.92,0001.98
2022-05-15 23:31:00,,0828.0,4.99,0.00,29.6,25.1,00.0,38.5,30.9,15.7,0000.0,0015.72,0003.95,0001.98
2022-05-15 23:32:00,,0828.0,5.00,0.00,29.4,25.1,00.0,38.4,30.9,15.9,0000.0,0015.70,0003.98,0001.99
2022-05-15 23:33:00,,0828.0,5.00,0.00,29.4,25.6,00.0,38.4,30.9,16.0,0000.0,0014.82,0003.89,0002.00
2022-05-15 23:34:00,,0828.0,5.00,0.00,29.4,26.1,00.0,38.3,31.0,15.9,0000.0,0013.55,0003.86,0002.00
2022-05-15 23:35:00,,0828.0,5.01,0.00,29.4,26.6,00.0,38.3,31.1,15.3,0000.0,0014.08,0003.93,0002.03
2022-05-15 23:36:00,,0828.1,5.00,0.00,29.4,27.0,00.0,38.3,31.1,15.3,0000.0,0013.76,0003.89,0002.03
2022-05-15 23:37:00,,0828.1,5.01,0.00,29.4,27.3,00.0,38.3,31.2,15.5,0000.0,0013.37,0003.83,0002.02
2022-05-15 23:38:00,,0828.1,5.00,0.00,29.4,27.6,00.0,38.3,31.3,15.6,0000.0,0013.30,0003.89,0002.03
2022-05-15 23:39:00,,0828.0,5.00,0.00,29.5,27.9,00.0,38.3,31.3,15.3,0000.0,0012.91,0003.91,0002.03
2022-05-15 23:40:00,,0828.1,5.00,0.00,29.5,28.0,00.0,38.3,31.4,15.3,0000.0,0012.35,0003.88,0002.03
2022-05-15 23:41:00,,0828.3,5.00,0.00,29.5,28.2,00.0,38.3,31.4,15.3,0000.0,0011.36,0003.85,0002.02
2022-05-15 23:42:00,,0828.2,4.99,0.00,29.6,28.3,00.0,38.4,31.5,15.6,0000.0,0010.75,0003.84,0002.00
2022-05-15 23:43:00,,0828.0,5.01,0.00,29.6,28.5,00.0,38.4,31.6,15.8,0000.0,0010.75,0003.82,0001.99
2022-05-15 23:44:00,,0828.0,4.99,0.00,29.7,28.6,00.0,38.4,31.6,15.9,0000.0,0011.07,0003.82,0001.97
2022-05-15 23:45:00,,0828.1,5.00,0.00,29.7,28.6,00.0,38.4,31.6,15.9,0000.0,0011.20,0003.84,0001.93
2022-05-15 23:46:00,,0828.0,5.00,0.00,29.7,28.3,00.0,38.5,31.5,15.6,0000.0,0010.68,0003.81,0001.90
2022-05-15 23:47:00,,0827.9,5.01,0.00,29.6,26.1,00.0,38.4,31.1,15.4,0000.0,0010.36,0003.75,0001.88
2022-05-15 23:48:00,,0828.0,4.99,0.00,29.5,25.0,00.0,38.4,30.8,15.3,0000.0,0010.38,0003.72,0001.88
2022-05-15 23:49:00,,0828.0,5.00,0.00,29.4,25.4,00.0,38.4,30.9,15.5,0000.0,0010.07,0003.61,0001.88
2022-05-15 23:50:00,,0828.0,5.00,0.00,29.3,25.9,00.0,38.3,30.9,15.6,0000.0,0011.03,0003.60,0001.86
2022-05-15 23:51:00,,0828.1,5.00,0.00,29.3,26.4,00.0,38.3,31.0,16.0,0000.0,0011.50,0003.66,0001.86
2022-05-15 23:52:00,,0828.2,5.00,0.00,29.4,26.9,00.0,38.3,31.1,16.1,0000.0,0012.07,0003.74,0001.84
2022-05-15 23:53:00,,0828.2,5.00,0.00,29.4,27.2,00.0,38.3,31.2,16.3,0000.0,0012.62,0003.75,0001.83
2022-05-15 23:54:00,,0828.0,5.00,0.00,29.4,27.5,00.0,38.3,31.2,15.9,0000.0,0012.23,0003.71,0001.82
2022-05-15 23:55:00,,0828.0,4.99,0.00,29.4,27.7,00.0,38.3,31.3,15.7,0000.0,0012.00,0003.67,0001.80
2022-05-15 23:56:00,,0827.9,5.00,0.00,29.5,27.9,00.0,38.3,31.4,15.7,0000.0,0012.30,0003.62,0001.80
2022-05-15 23:57:00,,0828.0,5.01,0.00,29.5,28.1,00.0,38.3,31.4,15.8,0000.0,0013.11,0003.59,0001.79
2022-05-15 23:58:00,,0827.9,5.00,0.00,29.5,28.3,00.0,38.3,31.4,15.8,0000.0,0014.10,0003.60,0001.78
2022-05-15 23:59:00,,0827.9,4.99,0.00,29.6,28.4,00.0,38.4,31.5,15.3,0000.0,0014.77,0003.73,0001.77
